Погода в Пайшанбе

Узбекистан     40°00′39″N   66°13′47″E
темп.,
°C
ветер,
м/с
пор.,
м/с
влажн.,
%
обл.,
%
осадки,
мм/ч
давл.,
гПа
погр.,
м
27 февраля, сб
сб2723:00−2юв233662 0.0 1030144
02:00−2юв1234100 0.0 1029189
05:00−2ююв1131100 0.0 1029158
08:00−2юв2325100 0.0 1029220
11:00+2юз341884 0.0 1029877
14:00+5юз46140 0.0 10271307
17:00+5юз44170 0.0 10271049
20:00+2з11310 0.0 102922
28 февраля, вс
вс2823:00+1в34270 0.0 102843
02:000в23370 0.0 102629
05:000в23390 0.0 102524
08:00+1в23420 0.0 102444
11:00+8в23300 0.0 1022426
14:00+11всв11250 0.0 1019774
17:00+12ссв112414 0.0 1018854
20:00+8всв233678 0.0 101926
1 марта, пн
пн123:00+7в344388 0.0 102037
02:00+6в2344100 0.0 102026
05:00+5в344291 0.0 101928
08:00+6в34390 0.0 102038
11:00+13вюв34260 0.0 1018368
14:00+18юз79170 0.0 10171669
17:00+18зюз58180 0.0 10161593
20:00+12зюз23320 0.0 101923
2 марта, вт
вт223:00+10зсз233727 0.0 102023
02:00+9сз1138100 0.0 102122
05:00+8вюв1139100 0.0 102022
08:00+9в2337100 0.0 102230
11:00+14в2326100 0.0 1021436
14:00+16зсз2221100 0.0 1020770
17:00+16юз4625100 0.0 10201440
20:00+12ю5103795 0.0 1021263
3 марта, ср
ср323:00+11ююз345194 0.0 102267
02:00+9ю0150100 0.0 102124
05:00+8зюз017199 0.1 102123
08:00+9сз1163100 0.0 102126
11:00+12ююз1237100 0.0 1021495
14:00+13ююв3435100 0.1 10191625
17:00+14ю123283 0.1 10181794
20:00+10в35641 0.0 1018160